User: anonymous   Login
Location: Unspecified
(0.0000°N, 0.0000°E)
Time: 20:57:23
(UTC+02:00)
Language:

CZ-2C R/B - Orbit

View from above orbital plane
View from above orbital plane
View from above satellite
View from above satellite

Ground track
Ground track

The orbit data is extracted from the following two-line orbital elements,

1 28480U 04046B   17173.87263437 +.00000005 +00000-0 +17720-4 0  9991
2 28480 098.1961 269.6972 0141484 207.3239 293.4430 14.25640761655026
Epoch (UTC): 22 June 2017 20:56:35
Eccentricity: 0.0141484
inclination: 98.1961°
perigee height: 704 km
apogee height: 908 km
right ascension of ascending node: 269.6972°
argument of perigee: 207.3239°
revolutions per day: 14.25640761
mean anomaly at epoch: 293.4430°
orbit number at epoch: 65502

The dashed part of the orbit path shows where the satellite is in the earth's shadow,  

DLR